Regional Weather Roundup
Issued by NWS

Home | Current Version | Previous Version | Graphics & Text | Print | Product List | Glossary On
Versions: 1 2 3 4 5 6 7 8 9 10 11 12 13 14 15 16 17 18 19 20 21 22 23 24 25 26 27 28 29 30 31 32 33 34 35 36 37 38 39 40 41 42 43 44 45 46 47 48 49 50
000
ASUS45 KABQ 281101
RWRNM
WEATHER ROUNDUP FOR NEW MEXICO
NATIONAL WEATHER SERVICE ALBUQUERQUE NM
400 AM MST WED JAN 28 2015

NOTE: "FAIR" MEANS FEW OR NO CLOUDS BELOW 12,000 FEET AGL WITH NO
       SIGNIFICANT WEATHER OR OBSTRUCTIONS TO VISION.

      THIS PRODUCT IS RELEASED AS TWO VERSIONS.  ONE VERSION NEAR
      THE TOP OF THE HOUR CONTAINING PRELIMINARY DATA FROM ALBUQUERQUE
      AND OTHER STATIONS.  A FINAL VERSION WITH ADDITIONAL DATA IS
      ISSUED ABOUT 10 MINUTES AFTER THE HOUR.

NMZ501-503-504-510>518-281200-
NORTHWEST PLATEAU/NORTHCENTRAL MOUNTAINS

CITY           SKY/WX    TMP DP  RH WIND       PRES   REMARKS
FARMINGTON     CLEAR     33  28  81 E6        30.26S WCI  28
SANTA FE       MOCLDY    36  31  82 N7        30.24S WCI  30
TAOS           PTCLDY    30  25  80 CALM      30.27S

$$
NMZ402-403-502-505>509-281200-
WESTCENTRAL MOUNTAINS/SOUTHWEST MOUNTAINS

CITY           SKY/WX    TMP DP  RH WIND       PRES   REMARKS
GALLUP         CLEAR     32  30  92 E3        30.30F
SILVER CITY    CLOUDY    41  32  70 NW6       30.25S

$$
NMZ407-409-411-412-281200-
SOUTHERN DESERTS

CITY           SKY/WX    TMP DP  RH WIND       PRES   REMARKS
DEMING         MOCLDY    39  34  82 S3        30.19F
HOLLOMAN AFB   CLEAR     38  34  85 NE8       30.20S WCI  32
ALAMOGORDO     CLEAR     45  36  70 N9        30.21F
T OR C         MOCLDY    43  34  70 CALM      30.21F

$$
NMZ519>523-281200-
CENTRAL VALLEYS/CENTRAL HIGHLANDS

CITY           SKY/WX    TMP DP  RH WIND       PRES   REMARKS
ALBUQUERQUE    PTCLDY    36  29  75 CALM      30.26R
DOUBLE EAGLE   PTCLDY    38  32  79 W10       30.27R WCI  31
CLINES CORNERS PTCLDY    39  31  72 W21       30.20S WCI  29
BELEN          FAIR      32  30  94 N3        30.25F
SOCORRO        NOT AVBL

$$
NMZ524>526-539-540-281200-
SOUTHCENTRAL MOUNTAINS

CITY           SKY/WX    TMP DP  RH WIND       PRES   REMARKS
RUIDOSO        NOT AVBL

$$
NMZ527>531-281200-
NORTHEAST HIGHLANDS/NORTHEAST PLAINS

CITY           SKY/WX    TMP DP  RH WIND       PRES   REMARKS
LAS VEGAS      MOCLDY    45  25  45 W8G23     30.14S
RATON          CLOUDY    30  26  85 NE6       30.08R WCI  24
CLAYTON        MOCLDY    45  29  53 W9        29.98S

$$
NMZ532>537-281200-
EASTCENTRAL PLAINS

CITY           SKY/WX    TMP DP  RH WIND       PRES   REMARKS
TUCUMCARI      PTCLDY    45  34  65 SW13      30.03F
CANNON AFB     CLEAR     41  36  81 W10       30.11S
CLOVIS AIRPORT CLEAR     45  36  70 W14       30.10S

$$
NMZ028-029-538-281200-
SOUTHEAST PLAINS

CITY           SKY/WX    TMP DP  RH WIND       PRES   REMARKS
ROSWELL        CLEAR     38  33  82 N5        30.13F WCI  34
ARTESIA        CLEAR     45  39  81 W10       30.15F
CARLSBAD       CLEAR     42  36  79 NW5       30.13F
HOBBS          CLEAR     45  39  81 SW8       30.15S


$$



USA.gov is the U.S. government's official web portal to all federal, state and local government web resources and services.